sat.trackr.live / text

‹ back to catalog

STARLINK-3725

NORAD 52123 · 2022-029AM

PAYLOAD ACTIVE UNKNOWN

§ Identity

Operator
Country
US
Launch date
2022-03-19
Launch site
AFETR
Launch vehicle
Mass (kg)
RCS (m²)

Purposes: comms

External: N2YO · Heavens-Above · Gunter

§ Orbital elements

Epoch: 2026-05-25T02:48:37.060704Z

Period
95.44 min
Inclination
53.2138°
Eccentricity
0.0001452
Mean motion
15.08845398 rev/d
Perigee alt
538.7 km
Apogee alt
540.7 km
Semi-major
6,917.9 km
B*
1.1247e-4
RAAN
85.8458°
Arg perigee
130.1013°
Mean anomaly
230.0107°
Rev number
23,247

§ Raw data

STARLINK-37251 52123U 22029AM  26145.11709561  .00001503  00000+0  11247-3 0  99922 52123  53.2138  85.8458 0001452 130.1013 230.0107 15.08845398232478

JSON: /api/v1/satellites/52123 · /tle

For live sub-satellite position, see the globe view (requires WebGL).

§ Visibility from observer

Set your observer location to see the next 7 days of passes ≥ 10°. The values pass through the URL so the page stays shareable.

No JS? Fill the form by hand. The geolocation button needs JavaScript.